TimeCST,TemperatureF,Dew PointF,Humidity,Sea Level PressureIn,VisibilityMPH,Wind Direction,Wind SpeedMPH,Gust SpeedMPH,PrecipitationIn,Events,Conditions,WindDirDegrees,DateUTC
12:53 AM,28.9,19.0,67,30.17,10.0,NNW,5.8,-,N/A,,Partly Cloudy,340,2013-02-19 06:53:00
1:53 AM,25.0,18.0,75,30.19,10.0,WSW,3.5,-,N/A,,Partly Cloudy,250,2013-02-19 07:53:00
2:53 AM,19.9,15.1,81,30.22,10.0,WSW,8.1,-,N/A,,Clear,240,2013-02-19 08:53:00
3:53 AM,26.1,17.1,69,30.22,10.0,NW,3.5,-,N/A,,Clear,320,2013-02-19 09:53:00
4:53 AM,25.0,18.0,75,30.24,10.0,Calm,Calm,-,N/A,,Clear,0,2013-02-19 10:53:00
5:53 AM,26.1,18.0,71,30.26,10.0,NNW,5.8,-,N/A,,Clear,340,2013-02-19 11:53:00
6:53 AM,27.0,18.0,69,30.28,10.0,North,8.1,-,N/A,,Clear,350,2013-02-19 12:53:00
7:53 AM,27.0,18.0,69,30.31,10.0,North,8.1,-,N/A,,Clear,350,2013-02-19 13:53:00
8:53 AM,30.0,17.1,59,30.34,10.0,North,16.1,-,N/A,,Clear,360,2013-02-19 14:53:00
9:53 AM,35.1,17.1,48,30.37,10.0,North,10.4,-,N/A,,Partly Cloudy,360,2013-02-19 15:53:00
10:53 AM,37.0,16.0,42,30.38,10.0,North,8.1,18.4,N/A,,Partly Cloudy,10,2013-02-19 16:53:00
12:53 PM,42.1,14.0,32,30.36,10.0,NNW,6.9,-,N/A,,Partly Cloudy,330,2013-02-19 18:53:00
1:53 PM,43.0,16.0,34,30.32,10.0,NE,8.1,-,N/A,,Scattered Clouds,50,2013-02-19 19:53:00
2:53 PM,45.0,16.0,31,30.30,10.0,North,3.5,-,N/A,,Mostly Cloudy,10,2013-02-19 20:53:00
3:53 PM,46.0,16.0,30,30.28,10.0,North,5.8,-,N/A,,Mostly Cloudy,360,2013-02-19 21:53:00
4:53 PM,45.0,16.0,31,30.26,10.0,East,5.8,-,N/A,,Scattered Clouds,90,2013-02-19 22:53:00
6:53 PM,39.0,17.1,41,30.26,10.0,East,8.1,-,N/A,,Scattered Clouds,80,2013-02-20 00:53:00
7:53 PM,37.0,16.0,42,30.26,10.0,East,8.1,-,N/A,,Mostly Cloudy,80,2013-02-20 01:53:00
8:53 PM,37.0,12.0,36,30.28,10.0,East,10.4,-,N/A,,Mostly Cloudy,80,2013-02-20 02:53:00
9:53 PM,35.1,9.0,34,30.29,10.0,East,10.4,-,N/A,,Mostly Cloudy,80,2013-02-20 03:53:00
10:53 PM,34.0,10.0,37,30.30,10.0,East,11.5,-,N/A,,Overcast,80,2013-02-20 04:53:00
11:53 PM,33.1,9.0,37,30.29,10.0,East,12.7,-,N/A,,Overcast,90,2013-02-20 05:53:00